| time (UTC) | temp F | wind direction | speed MPH | gust MPH | rain 1hr in | rain 24hr in | rain mn in | humidity % | barometer mb |
| 20260904030026 | 82 | 188 | 0.0 | 2.0 | 0.00 | 0.00 | 0.00 | 86 | 1013.2 |
| 20260904025503 | 82 | 196 | 0.0 | 3.0 | 0.00 | 0.00 | 0.00 | 86 | 1013.1 |
| 20260904025024 | 82 | 196 | 1.0 | 3.0 | 0.00 | 0.00 | 0.00 | 86 | 1013.1 |
| 20260904024525 | 82 | 191 | 1.0 | 3.0 | 0.00 | 0.00 | 0.00 | 86 | 1013.2 |
| 20260904024025 | 82 | 173 | 1.0 | 5.0 | 0.00 | 0.00 | 0.00 | 86 | 1013.4 |
| 20260904023504 | 82 | 175 | 1.0 | 5.0 | 0.00 | 0.00 | 0.00 | 86 | 1013.4 |
| 20260904023003 | 82 | 183 | 1.0 | 5.0 | 0.00 | 0.00 | 0.00 | 85 | 1013.3 |
| 20260904022504 | 82 | 179 | 1.0 | 5.0 | 0.00 | 0.00 | 0.00 | 85 | 1013.2 |
| 20260904022024 | 82 | 168 | 1.0 | 4.0 | 0.00 | 0.00 | 0.00 | 85 | 1013.1 |
| 20260904021504 | 82 | 172 | 1.0 | 4.0 | 0.00 | 0.01 | 0.00 | 85 | 1013.1 |
| 20260904021004 | 82 | 193 | 1.0 | 4.0 | 0.00 | 0.01 | 0.00 | 85 | 1013.2 |
| 20260904020524 | 82 | 200 | 1.0 | 4.0 | 0.00 | 0.01 | 0.00 | 85 | 1013.2 |
| 20260904020004 | 82 | 186 | 1.0 | 5.0 | 0.00 | 0.01 | 0.00 | 85 | 1013.2 |
| 20260904015504 | 82 | 194 | 1.0 | 5.0 | 0.00 | 0.01 | 0.00 | 85 | 1013.3 |
| 20260904015025 | 82 | 204 | 1.0 | 4.0 | 0.00 | 0.01 | 0.00 | 85 | 1013.3 |
| 20260904014525 | 82 | 183 | 1.0 | 6.0 | 0.00 | 0.01 | 0.00 | 85 | 1013.2 |
| 20260904014004 | 82 | 178 | 1.0 | 6.0 | 0.00 | 0.01 | 0.00 | 85 | 1013.0 |
| 20260904013525 | 82 | 179 | 1.0 | 5.0 | 0.00 | 0.01 | 0.00 | 84 | 1013.0 |
| 20260904013003 | 82 | 178 | 1.0 | 5.0 | 0.00 | 0.01 | 0.00 | 84 | 1012.9 |
| 20260904012504 | 82 | 177 | 1.0 | 5.0 | 0.00 | 0.01 | 0.00 | 84 | 1013.0 |
| 20260904012004 | 82 | 189 | 1.0 | 4.0 | 0.00 | 0.01 | 0.00 | 84 | 1013.1 |
| 20260904011526 | 82 | 191 | 1.0 | 5.0 | 0.00 | 0.01 | 0.00 | 84 | 1013.1 |
| 20260904011003 | 83 | 179 | 1.0 | 5.0 | 0.00 | 0.01 | 0.00 | 83 | 1013.3 |
| 20260904010526 | 83 | 178 | 1.0 | 5.0 | 0.00 | 0.01 | 0.00 | 83 | 1013.5 |
| 20260904010004 | 83 | 172 | 0.0 | 3.0 | 0.00 | 0.01 | 0.00 | 82 | 1013.5 |
| 20260904005525 | 83 | 165 | 0.0 | 3.0 | 0.00 | 0.01 | 0.00 | 81 | 1013.7 |
| 20260904005025 | 83 | 153 | 0.0 | 2.0 | 0.00 | 0.01 | 0.00 | 81 | 1013.7 |
| 20260904004526 | 84 | 0 | 0.0 | 0.0 | 0.00 | 0.01 | 0.00 | 81 | 1013.6 |
| 20260904004025 | 84 | 0 | 0.0 | 0.0 | 0.00 | 0.01 | 0.00 | 80 | 1013.7 |
| 20260904003525 | 84 | 0 | 0.0 | 0.0 | 0.00 | 0.01 | 0.00 | 80 | 1013.7 |
| 20260904003025 | 84 | 0 | 0.0 | 0.0 | 0.00 | 0.01 | 0.00 | 80 | 1013.8 |
| 20260904002504 | 84 | 0 | 0.0 | 0.0 | 0.00 | 0.01 | 0.00 | 79 | 1013.9 |
| 20260904002025 | 84 | 189 | 0.0 | 2.0 | 0.00 | 0.01 | 0.00 | 79 | 1013.9 |
| 20260904001504 | 85 | 185 | 1.0 | 4.0 | 0.00 | 0.01 | 0.00 | 79 | 1013.8 |
| 20260904001025 | 85 | 185 | 1.0 | 4.0 | 0.00 | 0.01 | 0.00 | 78 | 1013.7 |
| 20260904000503 | 85 | 192 | 0.0 | 3.0 | 0.00 | 0.01 | 0.00 | 77 | 1013.7 |
| 20260904000024 | 85 | 191 | 0.0 | 2.0 | 0.00 | 0.01 | 0.00 | 77 | 1013.5 |
| 20260903235525 | 86 | 182 | 0.0 | 2.0 | 0.00 | 0.01 | 0.00 | 76 | 1013.5 |
| 20260903235025 | 86 | 179 | 0.0 | 3.0 | 0.00 | 0.01 | 0.00 | 76 | 1013.3 |
| 20260903234504 | 86 | 182 | 1.0 | 3.0 | 0.00 | 0.01 | 0.00 | 76 | 1013.2 |
| 20260903234004 | 86 | 190 | 1.0 | 3.0 | 0.00 | 0.01 | 0.00 | 75 | 1013.1 |
| 20260903233504 | 87 | 206 | 0.0 | 3.0 | 0.00 | 0.01 | 0.00 | 75 | 1013.1 |
| 20260903233025 | 87 | 209 | 0.0 | 2.0 | 0.00 | 0.01 | 0.00 | 74 | 1013.0 |
| 20260903232525 | 87 | 178 | 0.0 | 1.0 | 0.00 | 0.01 | 0.00 | 74 | 1012.8 |
| 20260903232004 | 88 | 133 | 0.0 | 2.0 | 0.00 | 0.01 | 0.00 | 73 | 1013.0 |
| 20260903231505 | 88 | 132 | 0.0 | 2.0 | 0.00 | 0.01 | 0.00 | 72 | 1013.0 |
| 20260903231004 | 88 | 203 | 1.0 | 4.0 | 0.00 | 0.01 | 0.00 | 72 | 1013.0 |
| 20260903230503 | 89 | 202 | 1.0 | 4.0 | 0.00 | 0.01 | 0.00 | 71 | 1013.0 |
| 20260903230024 | 89 | 173 | 1.0 | 3.0 | 0.00 | 0.01 | 0.00 | 70 | 1012.9 |
| 20260903225503 | 90 | 175 | 1.0 | 3.0 | 0.00 | 0.01 | 0.00 | 69 | 1012.9 |
| 20260903225003 | 90 | 174 | 1.0 | 4.0 | 0.00 | 0.01 | 0.00 | 68 | 1012.8 |
| 20260903224524 | 90 | 169 | 1.0 | 4.0 | 0.00 | 0.01 | 0.00 | 68 | 1012.8 |
| 20260903224025 | 90 | 181 | 1.0 | 4.0 | 0.00 | 0.01 | 0.00 | 67 | 1012.9 |
| 20260903223526 | 91 | 189 | 1.0 | 4.0 | 0.00 | 0.01 | 0.00 | 67 | 1013.0 |
| 20260903223024 | 91 | 189 | 1.0 | 4.0 | 0.00 | 0.01 | 0.00 | 67 | 1012.8 |
| 20260903222526 | 91 | 192 | 0.0 | 3.0 | 0.00 | 0.01 | 0.00 | 66 | 1012.8 |
| 20260903222025 | 91 | 178 | 1.0 | 4.0 | 0.00 | 0.01 | 0.00 | 66 | 1012.7 |
| 20260903221503 | 91 | 183 | 1.0 | 4.0 | 0.00 | 0.01 | 0.00 | 65 | 1012.7 |
| 20260903221025 | 91 | 181 | 1.0 | 4.0 | 0.00 | 0.01 | 0.00 | 65 | 1012.8 |
| 20260903220524 | 92 | 184 | 1.0 | 5.0 | 0.00 | 0.01 | 0.00 | 65 | 1012.8 |
| 20260903220004 | 92 | 194 | 1.0 | 5.0 | 0.00 | 0.01 | 0.00 | 64 | 1012.8 |
| 20260903215525 | 92 | 208 | 1.0 | 4.0 | 0.00 | 0.01 | 0.00 | 66 | 1012.8 |
| 20260903215025 | 92 | 206 | 1.0 | 4.0 | 0.00 | 0.01 | 0.00 | 64 | 1013.0 |
| 20260903214524 | 92 | 209 | 1.0 | 4.0 | 0.00 | 0.01 | 0.00 | 63 | 1012.9 |
| 20260903214003 | 91 | 203 | 1.0 | 4.0 | 0.00 | 0.01 | 0.00 | 64 | 1012.9 |
| 20260903213525 | 91 | 184 | 1.0 | 4.0 | 0.00 | 0.01 | 0.00 | 64 | 1012.9 |
| 20260903213003 | 91 | 177 | 1.0 | 4.0 | 0.00 | 0.01 | 0.00 | 63 | 1012.9 |
| 20260903212504 | 91 | 167 | 1.0 | 5.0 | 0.00 | 0.01 | 0.00 | 63 | 1013.0 |
| 20260903212004 | 91 | 150 | 2.0 | 5.0 | 0.00 | 0.01 | 0.00 | 63 | 1013.0 |
| 20260903211504 | 91 | 175 | 2.0 | 5.0 | 0.00 | 0.01 | 0.00 | 62 | 1013.0 |
| 20260903211003 | 92 | 197 | 2.0 | 8.0 | 0.00 | 0.01 | 0.00 | 62 | 1012.9 |
| 20260903210524 | 92 | 194 | 2.0 | 8.0 | 0.00 | 0.01 | 0.00 | 62 | 1012.9 |
| 20260903210025 | 91 | 157 | 1.0 | 8.0 | 0.00 | 0.01 | 0.00 | 62 | 1013.0 |
| 20260903205524 | 91 | 132 | 2.0 | 7.0 | 0.00 | 0.01 | 0.00 | 63 | 1013.1 |
| 20260903205025 | 91 | 165 | 2.0 | 7.0 | 0.00 | 0.01 | 0.00 | 62 | 1013.1 |
| 20260903204524 | 91 | 187 | 2.0 | 6.0 | 0.00 | 0.01 | 0.00 | 62 | 1013.2 |
| 20260903204025 | 91 | 210 | 2.0 | 5.0 | 0.00 | 0.01 | 0.00 | 63 | 1013.3 |
| 20260903203503 | 91 | 209 | 2.0 | 6.0 | 0.00 | 0.01 | 0.00 | 61 | 1013.3 |
| 20260903203005 | 91 | 224 | 2.0 | 6.0 | 0.00 | 0.01 | 0.00 | 61 | 1013.3 |
| 20260903202503 | 91 | 224 | 2.0 | 6.0 | 0.00 | 0.01 | 0.00 | 61 | 1013.4 |
| 20260903202004 | 90 | 217 | 2.0 | 9.0 | 0.00 | 0.01 | 0.00 | 63 | 1013.5 |
| 20260903201503 | 90 | 225 | 3.0 | 9.0 | 0.00 | 0.01 | 0.00 | 60 | 1013.6 |
| 20260903201004 | 90 | 225 | 2.0 | 8.0 | 0.00 | 0.01 | 0.00 | 61 | 1013.7 |
| 20260903200525 | 90 | 237 | 2.0 | 6.0 | 0.00 | 0.01 | 0.00 | 62 | 1013.8 |
| 20260903200003 | 89 | 265 | 2.0 | 6.0 | 0.00 | 0.01 | 0.00 | 63 | 1013.8 |
| 20260903195504 | 89 | 266 | 1.0 | 6.0 | 0.00 | 0.01 | 0.00 | 64 | 1013.9 |
| 20260903195003 | 88 | 266 | 1.0 | 5.0 | 0.00 | 0.01 | 0.00 | 64 | 1014.1 |
| 20260903194503 | 88 | 239 | 2.0 | 6.0 | 0.00 | 0.01 | 0.00 | 65 | 1014.2 |
| 20260903194024 | 88 | 236 | 2.0 | 7.0 | 0.00 | 0.01 | 0.00 | 63 | 1014.2 |
| 20260903193503 | 88 | 239 | 2.0 | 7.0 | 0.00 | 0.01 | 0.00 | 65 | 1014.3 |
| 20260903193005 | 88 | 242 | 2.0 | 6.0 | 0.00 | 0.01 | 0.00 | 65 | 1014.4 |
| 20260903192503 | 88 | 259 | 2.0 | 7.0 | 0.00 | 0.01 | 0.00 | 64 | 1014.5 |
| 20260903192024 | 88 | 259 | 2.0 | 8.0 | 0.00 | 0.01 | 0.00 | 65 | 1014.6 |
| 20260903191524 | 88 | 234 | 3.0 | 10.0 | 0.00 | 0.01 | 0.00 | 63 | 1014.7 |
| 20260903191006 | 88 | 229 | 4.0 | 10.0 | 0.00 | 0.01 | 0.00 | 63 | 1014.6 |
| 20260903190504 | 88 | 228 | 5.0 | 13.0 | 0.00 | 0.01 | 0.00 | 63 | 1014.6 |
| 20260903190003 | 89 | 209 | 4.0 | 13.0 | 0.00 | 0.01 | 0.00 | 61 | 1014.7 |
| 20260903185504 | 90 | 207 | 3.0 | 11.0 | 0.00 | 0.01 | 0.00 | 61 | 1014.6 |
| 20260903185003 | 89 | 241 | 3.0 | 10.0 | 0.00 | 0.01 | 0.00 | 63 | 1014.5 |
| 20260903184504 | 89 | 222 | 3.0 | 10.0 | 0.00 | 0.01 | 0.00 | 63 | 1014.6 |
| 20260903184024 | 88 | 211 | 3.0 | 10.0 | 0.00 | 0.01 | 0.00 | 67 | 1014.6 |
| 20260903183525 | 88 | 208 | 3.0 | 10.0 | 0.00 | 0.02 | 0.00 | 67 | 1014.7 |
| 20260903183003 | 87 | 226 | 3.0 | 8.0 | 0.00 | 0.02 | 0.00 | 68 | 1014.5 |
| 20260903182524 | 86 | 255 | 2.0 | 8.0 | 0.00 | 0.02 | 0.00 | 71 | 1014.6 |
| 20260903182003 | 86 | 261 | 2.0 | 7.0 | 0.00 | 0.02 | 0.00 | 71 | 1014.7 |
| 20260903181503 | 85 | 220 | 2.0 | 7.0 | 0.00 | 0.02 | 0.00 | 73 | 1014.8 |
| 20260903181004 | 85 | 230 | 3.0 | 11.0 | 0.00 | 0.02 | 0.00 | 72 | 1014.8 |
| 20260903180524 | 85 | 234 | 3.0 | 11.0 | 0.00 | 0.02 | 0.00 | 72 | 1014.9 |
| 20260903180025 | 85 | 212 | 3.0 | 10.0 | 0.00 | 0.02 | 0.00 | 73 | 1014.9 |
| 20260903175525 | 84 | 204 | 4.0 | 12.0 | 0.00 | 0.02 | 0.00 | 73 | 1015.1 |
| 20260903175003 | 84 | 211 | 5.0 | 12.0 | 0.00 | 0.02 | 0.00 | 73 | 1015.2 |
| 20260903174525 | 84 | 215 | 5.0 | 17.0 | 0.00 | 0.03 | 0.00 | 75 | 1015.3 |
| 20260903174004 | 83 | 225 | 4.0 | 17.0 | 0.00 | 0.03 | 0.00 | 76 | 1015.3 |
| 20260903173503 | 82 | 225 | 3.0 | 8.0 | 0.00 | 0.03 | 0.00 | 81 | 1015.3 |
| 20260903173004 | 82 | 212 | 4.0 | 10.0 | 0.00 | 0.04 | 0.00 | 83 | 1015.3 |
| 20260903172504 | 82 | 215 | 4.0 | 12.0 | 0.00 | 0.05 | 0.00 | 83 | 1015.3 |
| 20260903172003 | 82 | 199 | 4.0 | 12.0 | 0.00 | 0.05 | 0.00 | 85 | 1015.4 |
| 20260903171503 | 82 | 180 | 0.0 | 9.0 | 0.00 | 0.05 | 0.00 | 87 | 1015.4 |
| 20260903171025 | 74 | 0 | 0.0 | 0.0 | 0.00 | 0.05 | 0.00 | 96 | 1015.4 |
| 20260903170524 | 74 | 0 | 0.0 | 0.0 | 0.00 | 0.05 | 0.00 | 96 | 1015.3 |
| 20260903170025 | 74 | 0 | 0.0 | 0.0 | 0.00 | 0.05 | 0.00 | 96 | 1015.6 |
| 20260903165504 | 74 | 0 | 0.0 | 0.0 | 0.00 | 0.05 | 0.00 | 96 | 1015.8 |
| 20260903165025 | 74 | 0 | 0.0 | 0.0 | 0.00 | 0.05 | 0.00 | 96 | 1015.8 |
| 20260903164524 | 74 | 0 | 0.0 | 0.0 | 0.00 | 0.05 | 0.00 | 96 | 1015.9 |
| 20260903164025 | 74 | 0 | 0.0 | 0.0 | 0.00 | 0.05 | 0.00 | 96 | 1015.8 |
| 20260903163504 | 74 | 0 | 0.0 | 0.0 | 0.00 | 0.05 | 0.00 | 96 | 1015.9 |
| 20260903163024 | 74 | 0 | 0.0 | 0.0 | 0.00 | 0.05 | 0.00 | 96 | 1015.6 |
| 20260903162504 | 74 | 0 | 0.0 | 0.0 | 0.00 | 0.05 | 0.00 | 96 | 1016.3 |
| 20260903162003 | 74 | 0 | 0.0 | 0.0 | 0.00 | 0.05 | 0.00 | 96 | 1016.8 |
| 20260903161525 | 74 | 0 | 0.0 | 0.0 | 0.00 | 0.05 | 0.00 | 96 | 1016.8 |
| 20260903161024 | 74 | 0 | 0.0 | 0.0 | 0.00 | 0.05 | 0.00 | 96 | 1017.3 |
| 20260903160526 | 74 | 0 | 0.0 | 0.0 | 0.00 | 0.05 | 0.00 | 96 | 1017.7 |
| 20260903160003 | 74 | 0 | 0.0 | 0.0 | 0.00 | 0.05 | 0.00 | 96 | 1017.8 |
| 20260903155525 | 74 | 0 | 0.0 | 0.0 | 0.00 | 0.05 | 0.00 | 96 | 1017.9 |
| 20260903155024 | 74 | 0 | 0.0 | 0.0 | 0.00 | 0.05 | 0.00 | 96 | 1017.9 |
| 20260903154503 | 74 | 0 | 0.0 | 0.0 | 0.00 | 0.05 | 0.00 | 96 | 1017.6 |
| 20260903154026 | 74 | 0 | 0.0 | 0.0 | 0.00 | 0.05 | 0.00 | 96 | 1017.4 |
| 20260903153503 | 74 | 0 | 0.0 | 0.0 | 0.00 | 0.05 | 0.00 | 96 | 1017.0 |
| 20260903153004 | 74 | 0 | 0.0 | 0.0 | 0.00 | 0.05 | 0.00 | 96 | 1016.7 |
| 20260903152503 | 74 | 0 | 0.0 | 0.0 | 0.00 | 0.05 | 0.00 | 96 | 1016.9 |
| 20260903152003 | 74 | 0 | 0.0 | 0.0 | 0.00 | 0.05 | 0.00 | 96 | 1017.0 |
| 20260903151503 | 74 | 0 | 0.0 | 0.0 | 0.00 | 0.05 | 0.00 | 96 | 1016.8 |
| 20260903151003 | 74 | 0 | 0.0 | 0.0 | 0.00 | 0.05 | 0.00 | 96 | 1016.8 |
| 20260903150525 | 74 | 0 | 0.0 | 0.0 | 0.00 | 0.05 | 0.00 | 96 | 1016.7 |
| 20260903150003 | 74 | 0 | 0.0 | 0.0 | 0.00 | 0.05 | 0.00 | 96 | 1016.6 |
| 20260903145525 | 74 | 0 | 0.0 | 0.0 | 0.00 | 0.05 | 0.00 | 96 | 1016.5 |
| 20260903145003 | 74 | 0 | 0.0 | 0.0 | 0.00 | 0.05 | 0.00 | 96 | 1016.4 |
| 20260903144504 | 74 | 0 | 0.0 | 0.0 | 0.00 | 0.05 | 0.00 | 96 | 1016.3 |
| 20260903144004 | 74 | 0 | 0.0 | 0.0 | 0.00 | 0.05 | 0.00 | 96 | 1016.3 |
| 20260903143524 | 74 | 0 | 0.0 | 0.0 | 0.00 | 0.05 | 0.00 | 96 | 1016.2 |
| 20260903143024 | 74 | 0 | 0.0 | 0.0 | 0.00 | 0.05 | 0.00 | 96 | 1016.3 |
| 20260903142524 | 74 | 0 | 0.0 | 0.0 | 0.00 | 0.05 | 0.00 | 96 | 1016.4 |
| 20260903142024 | 74 | 0 | 0.0 | 0.0 | 0.00 | 0.05 | 0.00 | 96 | 1016.3 |
| 20260903141524 | 74 | 0 | 0.0 | 0.0 | 0.00 | 0.05 | 0.00 | 96 | 1016.0 |
| 20260903141005 | 74 | 0 | 0.0 | 0.0 | 0.00 | 0.05 | 0.00 | 96 | 1016.0 |
| 20260903140504 | 74 | 0 | 0.0 | 0.0 | 0.00 | 0.05 | 0.00 | 96 | 1016.0 |
| 20260903140003 | 74 | 0 | 0.0 | 0.0 | 0.00 | 0.05 | 0.00 | 96 | 1016.1 |
| 20260903135524 | 74 | 0 | 0.0 | 0.0 | 0.00 | 0.05 | 0.00 | 96 | 1016.2 |
| 20260903135024 | 74 | 0 | 0.0 | 0.0 | 0.00 | 0.05 | 0.00 | 96 | 1016.1 |
| 20260903134503 | 74 | 0 | 0.0 | 0.0 | 0.00 | 0.05 | 0.00 | 96 | 1016.0 |
| 20260903134024 | 74 | 0 | 0.0 | 0.0 | 0.00 | 0.05 | 0.00 | 96 | 1015.8 |
| 20260903133504 | 74 | 0 | 0.0 | 0.0 | 0.00 | 0.05 | 0.00 | 96 | 1016.2 |
| 20260903133003 | 74 | 0 | 0.0 | 0.0 | 0.00 | 0.05 | 0.00 | 96 | 1016.3 |
| 20260903132503 | 74 | 0 | 0.0 | 0.0 | 0.00 | 0.05 | 0.00 | 96 | 1016.5 |
| 20260903132003 | 74 | 0 | 0.0 | 0.0 | 0.00 | 0.05 | 0.00 | 96 | 1016.7 |
| 20260903131524 | 74 | 0 | 0.0 | 0.0 | 0.00 | 0.05 | 0.00 | 96 | 1016.8 |
| 20260903131025 | 74 | 0 | 0.0 | 0.0 | 0.00 | 0.05 | 0.00 | 96 | 1016.9 |
| 20260903130524 | 74 | 0 | 0.0 | 0.0 | 0.00 | 0.05 | 0.00 | 96 | 1017.1 |
| 20260903130025 | 74 | 0 | 0.0 | 0.0 | 0.00 | 0.05 | 0.00 | 96 | 1017.2 |
| 20260903125525 | 74 | 0 | 0.0 | 0.0 | 0.00 | 0.05 | 0.00 | 96 | 1017.3 |
| 20260903125025 | 74 | 0 | 0.0 | 0.0 | 0.00 | 0.05 | 0.00 | 96 | 1017.3 |
| 20260903124503 | 74 | 0 | 0.0 | 0.0 | 0.00 | 0.05 | 0.00 | 96 | 1017.4 |
| 20260903124025 | 74 | 0 | 0.0 | 0.0 | 0.00 | 0.05 | 0.00 | 96 | 1017.6 |
| 20260903123525 | 74 | 0 | 0.0 | 0.0 | 0.00 | 0.05 | 0.00 | 96 | 1017.6 |
| 20260903123003 | 74 | 0 | 0.0 | 0.0 | 0.00 | 0.05 | 0.00 | 96 | 1017.6 |
| 20260903122503 | 74 | 0 | 0.0 | 0.0 | 0.00 | 0.05 | 0.00 | 96 | 1017.8 |
| 20260903122025 | 74 | 0 | 0.0 | 0.0 | 0.00 | 0.05 | 0.00 | 96 | 1017.8 |
| 20260903121504 | 74 | 0 | 0.0 | 0.0 | 0.00 | 0.05 | 0.00 | 96 | 1018.0 |
| 20260903121024 | 74 | 0 | 0.0 | 0.0 | 0.00 | 0.05 | 0.00 | 96 | 1017.9 |
| 20260903120524 | 74 | 0 | 0.0 | 0.0 | 0.00 | 0.05 | 0.00 | 96 | 1018.2 |
| 20260903120024 | 74 | 332 | 0.0 | 1.0 | 0.00 | 0.05 | 0.00 | 96 | 1018.2 |
| 20260903115503 | 74 | 332 | 0.0 | 2.0 | 0.00 | 0.05 | 0.00 | 96 | 1018.3 |
| 20260903115025 | 74 | 329 | 0.0 | 2.0 | 0.00 | 0.05 | 0.00 | 96 | 1018.4 |
| 20260903114503 | 74 | 323 | 0.0 | 2.0 | 0.00 | 0.05 | 0.00 | 96 | 1018.5 |
| 20260903114005 | 74 | 318 | 0.0 | 2.0 | 0.00 | 0.05 | 0.00 | 96 | 1018.6 |
| 20260903113524 | 74 | 0 | 0.0 | 0.0 | 0.00 | 0.05 | 0.00 | 96 | 1018.5 |
| 20260903113003 | 74 | 0 | 0.0 | 0.0 | 0.00 | 0.05 | 0.00 | 96 | 1018.4 |
| 20260903112503 | 74 | 0 | 0.0 | 0.0 | 0.00 | 0.05 | 0.00 | 96 | 1018.2 |
| 20260903112024 | 74 | 0 | 0.0 | 0.0 | 0.00 | 0.05 | 0.00 | 96 | 1017.9 |
| 20260903111504 | 74 | 0 | 0.0 | 0.0 | 0.00 | 0.05 | 0.00 | 96 | 1017.7 |
| 20260903111004 | 74 | 0 | 0.0 | 0.0 | 0.00 | 0.05 | 0.00 | 96 | 1017.7 |
| 20260903110525 | 74 | 0 | 0.0 | 0.0 | 0.00 | 0.05 | 0.00 | 96 | 1017.6 |
| 20260903110003 | 74 | 0 | 0.0 | 0.0 | 0.00 | 0.05 | 0.00 | 96 | 1017.6 |
| 20260903105525 | 74 | 0 | 0.0 | 0.0 | 0.00 | 0.05 | 0.00 | 96 | 1017.4 |
| 20260903105003 | 74 | 0 | 0.0 | 0.0 | 0.00 | 0.05 | 0.00 | 96 | 1017.3 |
| 20260903104524 | 74 | 0 | 0.0 | 0.0 | 0.00 | 0.05 | 0.00 | 96 | 1017.3 |
| 20260903104004 | 74 | 0 | 0.0 | 0.0 | 0.00 | 0.05 | 0.00 | 96 | 1017.2 |
| 20260903103524 | 74 | 0 | 0.0 | 0.0 | 0.00 | 0.05 | 0.00 | 96 | 1017.2 |
| 20260903103003 | 74 | 354 | 0.0 | 2.0 | 0.00 | 0.05 | 0.00 | 96 | 1017.1 |
| 20260903102524 | 74 | 358 | 1.0 | 2.0 | 0.00 | 0.05 | 0.00 | 96 | 1017.2 |
| 20260903102024 | 74 | 345 | 1.0 | 2.0 | 0.00 | 0.05 | 0.00 | 96 | 1017.1 |
| 20260903101503 | 74 | 331 | 1.0 | 3.0 | 0.00 | 0.05 | 0.00 | 96 | 1017.0 |
| 20260903101003 | 74 | 326 | 1.0 | 3.0 | 0.00 | 0.05 | 0.00 | 96 | 1016.9 |
| 20260903100504 | 74 | 314 | 0.0 | 2.0 | 0.00 | 0.05 | 0.00 | 96 | 1016.7 |
| 20260903100004 | 74 | 0 | 0.0 | 0.0 | 0.00 | 0.05 | 0.00 | 96 | 1016.0 |
| 20260903095503 | 74 | 185 | 0.0 | 1.0 | 0.00 | 0.05 | 0.00 | 96 | 1016.0 |
| 20260903095024 | 74 | 193 | 0.0 | 2.0 | 0.00 | 0.05 | 0.00 | 96 | 1016.2 |
| 20260903094524 | 74 | 196 | 0.0 | 2.0 | 0.00 | 0.05 | 0.00 | 96 | 1016.3 |
| 20260903094024 | 74 | 0 | 0.0 | 0.0 | 0.00 | 0.05 | 0.00 | 96 | 1016.3 |
| 20260903093525 | 74 | 0 | 0.0 | 0.0 | 0.00 | 0.05 | 0.00 | 96 | 1016.5 |
| 20260903093003 | 74 | 0 | 0.0 | 0.0 | 0.00 | 0.05 | 0.00 | 96 | 1016.6 |
| 20260903092503 | 74 | 0 | 0.0 | 0.0 | 0.00 | 0.05 | 0.00 | 96 | 1016.6 |
| 20260903092024 | 74 | 0 | 0.0 | 0.0 | 0.00 | 0.05 | 0.00 | 96 | 1016.6 |
| 20260903091524 | 74 | 0 | 0.0 | 0.0 | 0.00 | 0.05 | 0.00 | 96 | 1016.6 |
| 20260903091024 | 74 | 0 | 0.0 | 0.0 | 0.00 | 0.05 | 0.00 | 96 | 1016.7 |
| 20260903090524 | 74 | 0 | 0.0 | 0.0 | 0.00 | 0.05 | 0.00 | 96 | 1016.8 |
| 20260903090004 | 74 | 0 | 0.0 | 0.0 | 0.00 | 0.05 | 0.00 | 96 | 1016.6 |
| 20260903085524 | 74 | 0 | 0.0 | 0.0 | 0.00 | 0.05 | 0.00 | 96 | 1016.6 |
| 20260903085025 | 74 | 0 | 0.0 | 0.0 | 0.00 | 0.05 | 0.00 | 96 | 1016.6 |
| 20260903084503 | 74 | 0 | 0.0 | 0.0 | 0.00 | 0.05 | 0.00 | 96 | 1016.6 |
| 20260903084024 | 74 | 0 | 0.0 | 0.0 | 0.00 | 0.05 | 0.00 | 96 | 1016.7 |
| 20260903083524 | 74 | 0 | 0.0 | 0.0 | 0.00 | 0.05 | 0.00 | 96 | 1016.9 |
| 20260903083024 | 74 | 0 | 0.0 | 0.0 | 0.00 | 0.05 | 0.00 | 96 | 1016.8 |
| 20260903082504 | 74 | 0 | 0.0 | 0.0 | 0.00 | 0.05 | 0.00 | 96 | 1016.8 |
| 20260903082003 | 74 | 0 | 0.0 | 0.0 | 0.00 | 0.05 | 0.00 | 96 | 1016.7 |
| 20260903081524 | 74 | 0 | 0.0 | 0.0 | 0.00 | 0.05 | 0.00 | 96 | 1016.7 |
| 20260903081024 | 74 | 0 | 0.0 | 0.0 | 0.00 | 0.05 | 0.00 | 96 | 1016.8 |
| 20260903080503 | 74 | 0 | 0.0 | 0.0 | 0.00 | 0.05 | 0.00 | 96 | 1016.7 |
| 20260903080024 | 74 | 0 | 0.0 | 0.0 | 0.00 | 0.05 | 0.00 | 96 | 1016.6 |
| 20260903075503 | 74 | 0 | 0.0 | 0.0 | 0.00 | 0.05 | 0.00 | 96 | 1016.6 |
| 20260903075004 | 74 | 0 | 0.0 | 0.0 | 0.00 | 0.05 | 0.00 | 96 | 1016.8 |
| 20260903074524 | 73 | 0 | 0.0 | 0.0 | 0.00 | 0.05 | 0.00 | 96 | 1016.7 |
| 20260903074003 | 73 | 0 | 0.0 | 0.0 | 0.00 | 0.05 | 0.00 | 96 | 1016.8 |
| 20260903073503 | 73 | 0 | 0.0 | 0.0 | 0.00 | 0.05 | 0.00 | 96 | 1016.8 |
| 20260903073004 | 73 | 0 | 0.0 | 0.0 | 0.00 | 0.05 | 0.00 | 96 | 1016.9 |
| 20260903072503 | 73 | 0 | 0.0 | 0.0 | 0.00 | 0.05 | 0.00 | 96 | 1016.7 |
| 20260903072025 | 73 | 0 | 0.0 | 0.0 | 0.00 | 0.05 | 0.00 | 96 | 1016.6 |
| 20260903071525 | 73 | 93 | 0.0 | 1.0 | 0.00 | 0.05 | 0.00 | 96 | 1016.5 |
| 20260903071025 | 73 | 92 | 0.0 | 1.0 | 0.00 | 0.05 | 0.00 | 96 | 1016.4 |
| 20260903070524 | 73 | 113 | 0.0 | 4.0 | 0.00 | 0.05 | 0.00 | 96 | 1016.5 |
| 20260903070004 | 73 | 142 | 1.0 | 4.0 | 0.00 | 0.05 | 0.00 | 96 | 1016.3 |
| 20260903065525 | 73 | 174 | 1.0 | 2.0 | 0.00 | 0.05 | 0.00 | 96 | 1016.3 |
| 20260903065024 | 73 | 185 | 0.0 | 3.0 | 0.00 | 0.05 | 0.00 | 96 | 1016.2 |
| 20260903064524 | 73 | 184 | 0.0 | 3.0 | 0.00 | 0.05 | 0.00 | 96 | 1016.1 |
| 20260903064025 | 73 | 158 | 0.0 | 1.0 | 0.00 | 0.05 | 0.00 | 96 | 1016.1 |
| 20260903063524 | 73 | 0 | 0.0 | 0.0 | 0.00 | 0.05 | 0.00 | 96 | 1016.2 |
| 20260903063003 | 73 | 0 | 0.0 | 0.0 | 0.00 | 0.05 | 0.00 | 96 | 1016.4 |
| 20260903062524 | 73 | 118 | 0.0 | 1.0 | 0.00 | 0.05 | 0.00 | 96 | 1016.4 |
| 20260903062003 | 73 | 117 | 0.0 | 1.0 | 0.00 | 0.05 | 0.00 | 96 | 1016.3 |
| 20260903061524 | 73 | 117 | 0.0 | 1.0 | 0.00 | 0.05 | 0.00 | 96 | 1016.4 |
| 20260903061003 | 72 | 142 | 0.0 | 1.0 | 0.00 | 0.05 | 0.00 | 96 | 1016.4 |
| 20260903060503 | 72 | 154 | 0.0 | 1.0 | 0.00 | 0.05 | 0.00 | 96 | 1016.4 |
| 20260903060025 | 72 | 166 | 0.0 | 2.0 | 0.00 | 0.05 | 0.00 | 96 | 1016.4 |
| 20260903055525 | 72 | 166 | 0.0 | 2.0 | 0.00 | 0.05 | 0.00 | 96 | 1016.4 |
| 20260903055024 | 72 | 0 | 0.0 | 0.0 | 0.00 | 0.05 | 0.00 | 96 | 1016.4 |
| 20260903054524 | 72 | 0 | 0.0 | 0.0 | 0.00 | 0.05 | 0.00 | 96 | 1016.4 |
| 20260903054024 | 72 | 0 | 0.0 | 0.0 | 0.00 | 0.05 | 0.00 | 95 | 1016.4 |
| 20260903053503 | 72 | 131 | 0.0 | 1.0 | 0.00 | 0.05 | 0.00 | 95 | 1016.8 |
| 20260903053025 | 72 | 131 | 0.0 | 3.0 | 0.00 | 0.05 | 0.00 | 95 | 1016.9 |
| 20260903052524 | 72 | 136 | 0.0 | 3.0 | 0.00 | 0.05 | 0.00 | 95 | 1016.9 |
| 20260903052025 | 72 | 184 | 0.0 | 2.0 | 0.00 | 0.05 | 0.00 | 95 | 1016.8 |
| 20260903051524 | 72 | 187 | 0.0 | 2.0 | 0.00 | 0.05 | 0.00 | 95 | 1016.8 |
| 20260903051003 | 71 | 0 | 0.0 | 0.0 | 0.00 | 0.05 | 0.00 | 95 | 1016.7 |
| 20260903050524 | 71 | 0 | 0.0 | 0.0 | 0.00 | 0.05 | 0.00 | 95 | 1016.7 |
| 20260903050024 | 71 | 0 | 0.0 | 0.0 | 0.00 | 0.05 | 0.00 | 95 | 1016.8 |
| 20260903045524 | 72 | 0 | 0.0 | 0.0 | 0.00 | 0.05 | 0.00 | 95 | 1017.0 |
| 20260903045024 | 72 | 0 | 0.0 | 0.0 | 0.00 | 0.05 | 0.00 | 95 | 1016.9 |
| 20260903044503 | 72 | 0 | 0.0 | 0.0 | 0.00 | 0.05 | 0.00 | 95 | 1017.0 |
| 20260903044025 | 72 | 0 | 0.0 | 0.0 | 0.00 | 0.05 | 0.00 | 95 | 1017.0 |
| 20260903043524 | 72 | 0 | 0.0 | 0.0 | 0.00 | 0.05 | 0.00 | 95 | 1016.9 |
| 20260903043004 | 72 | 0 | 0.0 | 0.0 | 0.00 | 0.05 | 0.00 | 95 | 1017.1 |
| 20260903042503 | 72 | 0 | 0.0 | 0.0 | 0.00 | 0.05 | 0.00 | 95 | 1017.0 |
| 20260903042003 | 72 | 0 | 0.0 | 0.0 | 0.00 | 0.05 | 0.00 | 95 | 1017.2 |
| 20260903041503 | 72 | 0 | 0.0 | 0.0 | 0.00 | 0.05 | 0.00 | 95 | 1017.2 |
| 20260903041024 | 72 | 0 | 0.0 | 0.0 | 0.00 | 0.05 | 0.00 | 95 | 1017.4 |
| 20260903040503 | 72 | 0 | 0.0 | 0.0 | 0.00 | 0.05 | 0.00 | 95 | 1017.4 |
| 20260903040024 | 72 | 0 | 0.0 | 0.0 | 0.00 | 0.05 | 0.00 | 95 | 1017.3 |
| 20260903035524 | 72 | 0 | 0.0 | 0.0 | 0.00 | 0.05 | 0.05 | 95 | 1017.4 |
| 20260903035003 | 72 | 0 | 0.0 | 0.0 | 0.00 | 0.05 | 0.05 | 95 | 1017.5 |
| 20260903034503 | 72 | 0 | 0.0 | 0.0 | 0.00 | 0.05 | 0.05 | 95 | 1017.5 |
| 20260903034003 | 72 | 0 | 0.0 | 0.0 | 0.00 | 0.05 | 0.05 | 95 | 1017.5 |
| 20260903033504 | 72 | 0 | 0.0 | 0.0 | 0.00 | 0.05 | 0.05 | 95 | 1017.3 |
| 20260903033003 | 72 | 0 | 0.0 | 0.0 | 0.00 | 0.05 | 0.05 | 95 | 1017.3 |
| 20260903032503 | 72 | 0 | 0.0 | 0.0 | 0.00 | 0.05 | 0.05 | 95 | 1017.2 |
| 20260903032024 | 72 | 0 | 0.0 | 0.0 | 0.00 | 0.05 | 0.05 | 95 | 1017.2 |
| 20260903031524 | 72 | 0 | 0.0 | 0.0 | 0.01 | 0.05 | 0.05 | 95 | 1017.2 |
| 20260903031003 | 72 | 0 | 0.0 | 0.0 | 0.01 | 0.05 | 0.05 | 94 | 1017.2 |
| 20260903030503 | 72 | 0 | 0.0 | 0.0 | 0.01 | 0.05 | 0.05 | 94 | 1017.2 |